PST,Max TemperatureF,Mean TemperatureF,Min TemperatureF,Max Dew PointF,MeanDew PointF,Min DewpointF,Max Humidity, Mean Humidity, Min Humidity, Max Sea Level PressureIn, Mean Sea Level PressureIn, Min Sea Level PressureIn, Max VisibilityMiles, Mean VisibilityMiles, Min VisibilityMiles, Max Wind SpeedMPH, Mean Wind SpeedMPH, Max Gust SpeedMPH,PrecipitationIn, CloudCover, Events, WindDirDegrees
2012-12-1,55,52,48,47,42,38,93,73,53,29.63,29.51,29.28,10,10,5,17,10,28,0.28,7,Rain,159
2012-12-2,48,46,44,45,42,39,93,84,76,29.80,29.50,29.18,10,8,3,17,7,25,1.00,7,Rain,170
2012-12-3,48,47,46,45,44,41,90,84,77,30.01,29.88,29.65,10,9,4,18,11,25,0.41,8,Rain,152
2012-12-4,53,50,46,50,44,40,93,80,66,29.85,29.71,29.54,10,9,3,17,8,25,0.46,7,Rain,175
2012-12-5,48,45,42,39,37,35,82,72,63,30.21,30.13,29.88,10,10,8,14,10,24,0.02,5,Rain,174
2012-12-6,46,44,42,40,39,37,86,80,74,30.18,30.10,30.05,10,10,6,14,9,26,0.07,7,Rain,183
2012-12-7,46,42,39,41,39,34,86,80,71,30.16,30.05,29.96,10,10,7,17,9,26,0.14,6,Rain,182
2012-12-8,44,40,37,36,34,32,86,77,61,30.35,30.25,30.15,10,10,10,12,6,,0.00,6,,108
2012-12-9,45,41,37,43,39,34,96,89,79,30.38,30.33,30.28,10,6,2,9,4,,0.06,8,Rain,139
2012-12-10,46,44,42,43,41,39,93,87,81,30.42,30.33,30.11,10,9,5,9,2,,0.00,8,,142
2012-12-11,46,44,43,41,40,38,86,82,76,30.09,29.77,29.56,10,10,5,16,9,23,0.10,7,Rain,154
2012-12-12,44,43,42,41,39,38,92,87,81,30.03,29.84,29.63,10,8,3,6,3,,0.28,8,Rain,143
2012-12-13,46,42,39,38,36,34,89,81,66,30.05,29.96,29.82,10,10,5,9,5,,0.08,8,Rain,139
2012-12-14,44,40,34,39,36,32,93,86,65,29.95,29.87,29.79,10,9,6,10,5,,0.25,7,Rain,124
2012-12-15,42,36,30,36,33,28,93,82,73,29.93,29.70,29.56,10,9,3,10,7,20,0.24,7,Rain,150
2012-12-16,55,47,39,48,37,34,89,84,76,29.75,29.49,28.97,10,9,4,20,11,28,0.92,7,Rain,150
2012-12-17,48,42,37,43,35,30,86,73,60,29.89,29.50,28.94,10,10,10,23,15,39,0.11,5,Rain,192
2012-12-18,39,36,34,34,32,29,92,81,67,29.99,29.95,29.88,10,9,5,13,10,23,0.05,7,Rain-Snow,163
2012-12-19,46,40,33,40,34,28,94,81,63,29.95,29.72,29.57,10,8,4,22,8,30,0.99,8,Rain-Snow,150
2012-12-20,44,38,32,43,36,30,99,83,76,29.83,29.67,29.52,10,8,5,16,6,25,0.64,5,Rain,165
2012-12-21,46,38,30,37,32,28,100,89,68,29.83,29.76,29.67,10,6,0,6,1,,0.07,5,Fog-Rain,143
2012-12-22,48,44,39,41,37,34,89,79,59,29.74,29.60,29.51,10,10,8,15,3,29,0.12,6,Rain,160
2012-12-23,46,42,39,39,36,34,87,79,68,29.82,29.72,29.62,10,9,6,8,4,,0.39,7,Rain,145
2012-12-24,45,41,37,39,37,35,93,85,76,30.17,30.06,29.85,10,9,5,8,5,,0.08,6,Rain,139
2012-12-25,44,40,37,36,35,32,93,78,63,30.02,29.76,29.66,10,9,6,14,3,22,0.41,7,Rain,130
2012-12-26,46,42,39,41,37,34,85,79,73,29.92,29.79,29.70,10,10,4,17,6,24,0.25,8,Rain,152
2012-12-27,46,44,41,40,38,36,89,81,71,30.17,30.08,29.92,10,9,2,8,4,,0.27,8,Rain,159
2012-12-28,48,44,39,38,36,32,89,75,61,30.17,30.14,30.11,10,10,10,5,1,,0.00,6,Rain,143
2012-12-29,43,41,39,38,34,31,86,77,66,30.24,30.19,30.16,10,10,5,7,3,,0.06,8,Rain,140
2012-12-30,42,38,33,36,34,32,93,86,70,30.33,30.29,30.23,10,6,0,7,1,,0.00,5,Fog,103
2012-12-31,41,36,30,34,31,28,93,83,73,30.46,30.33,30.25,10,9,2,7,2,,0.00,5,,112